Phoenix, AZ

4:23 PM MST on May 29, 2017 (GMT -0700)
Phoenix Sky Harbor International

Weather History for KPHX - March, 2013

Change the Weather History Date:

Saturday, March 23, 2013

  Actual Average Record
Temperature  
Mean Temperature 68 °F 67 °F  
Max Temperature 80 °F 79 °F 93 °F (1990)
Min Temperature 55 °F 55 °F 31 °F (1897)
Degree Days  
Heating Degree Days 0 2  
Month to date heating degree days 34 68  
Since 1 July heating degree days 881 901  
Cooling Degree Days 3 4  
Month to date cooling degree days 111 53  
Year to date cooling degree days 119 70  
Growing Degree Days 18 (Base 50)    
Moisture  
Dew Point 0 °F    
Average Humidity 20    
Maximum Humidity 38    
Minimum Humidity 1    
Precipitation  
Precipitation 0.00 in 0.03 in 0.52 in (2010)
Month to date precipitation 0.85 0.81  
Year to date precipitation 2.55 2.64  
Snow  
Snow 0.00 in - - ()
Month to date snowfall 0.0  
Year to date snowfall 0.0  
Since 1 July snowfall 0.0  
Snow Depth 0.00 in    
Sea Level Pressure  
Sea Level Pressure 29.85 in    
Wind  
Wind Speed 7 mph (WNW)    
Max Wind Speed 23 mph    
Max Gust Speed 26 mph    
Visibility 10 miles    
Events      
T = Trace of Precipitation, MM = Missing Value Source: NWS Daily Summary

Daily Weather History Graph

Daily Weather History Graph

Search for Another Location

Airport or City:

Trip Planner

Search our weather history database for the weather conditions in past years. The results will help you decide how hot, cold, wet, or windy it might be!

Date:

Astronomy

Mar. 23, 2013 Rise Set
Actual Time 6:27 AM MST 6:42 PM MST
Civil Twilight 6:02 AM MST 7:06 PM MST
Nautical Twilight 5:33 AM MST 7:36 PM MST
Astronomical Twilight 5:04 AM MST 8:05 PM MST
Moon 3:21 PM MST (3/23) 3:55 AM MST (3/23)
Length of Visible Light 13h 04m
Length of Day
12h 14m
Waxing Gibbous, 86% of the Moon is Illuminated
Mar 23
Waxing Gibbous
Mar 27
Full
Apr 2
Last Quarter
Apr 10
New
Apr 18
First Quarter

Hourly Weather History & Observations

Time (MST) Temp. Dew Point Humidity Pressure Visibility Wind Dir Wind Speed Gust Speed Precip Events Conditions
12:51 AM 69.1 °F 17.1 °F 14% 29.72 in 10.0 mi West 6.9 mph - N/A   Clear
1:51 AM 62.1 °F 28.0 °F 28% 29.73 in 10.0 mi WSW 5.8 mph - N/A   Clear
2:51 AM 66.0 °F 12.9 °F 13% 29.73 in 10.0 mi West 5.8 mph - N/A   Clear
3:51 AM 63.0 °F 10.0 °F 13% 29.74 in 10.0 mi North 4.6 mph - N/A   Clear
4:51 AM 59.0 °F 16.0 °F 19% 29.75 in 10.0 mi Calm Calm - N/A   Clear
5:51 AM 55.9 °F 30.0 °F 37% 29.78 in 10.0 mi East 6.9 mph - N/A   Clear
6:51 AM 60.1 °F 16.0 °F 18% 29.82 in 10.0 mi Variable 5.8 mph - N/A   Clear
7:51 AM 59.0 °F 30.2 °F 34% 29.90 in 10.0 mi East 4.6 mph - N/A   Clear
8:51 AM 62.1 °F 21.9 °F 21% 29.90 in 10.0 mi East 5.8 mph - N/A   Clear
9:51 AM 66.9 °F 10.9 °F 11% 29.91 in 10.0 mi Calm Calm - N/A   Clear
10:51 AM 70.0 °F 3.9 °F 7% 29.92 in 10.0 mi Calm Calm - N/A   Clear
11:51 AM 73.4 °F -5.8 °F 4% 29.95 in 10.0 mi Calm Calm - N/A   Clear
12:51 PM 75.2 °F -25.6 °F 4% 29.94 in 10.0 mi NW 10.4 mph 19.6 mph N/A   Clear
1:51 PM 75.9 °F -18.0 °F 4% 29.88 in 10.0 mi WNW 9.2 mph 18.4 mph N/A   Clear
2:51 PM 77.0 °F -16.1 °F 4% 29.85 in 10.0 mi NNW 6.9 mph - N/A   Clear
3:51 PM 78.1 °F -11.9 °F 4% 29.83 in 10.0 mi West 8.1 mph 18.4 mph N/A   Partly Cloudy
4:51 PM 80.1 °F -27.0 °F 4% 29.83 in 10.0 mi WNW 18.4 mph 24.2 mph N/A   Clear
5:51 PM 79.0 °F -31.0 °F 4% 29.83 in 10.0 mi WNW 17.3 mph - N/A   Clear
6:51 PM 75.9 °F -20.9 °F 4% 29.84 in 10.0 mi West 13.8 mph - N/A   Partly Cloudy
7:51 PM 73.9 °F -18.0 °F 4% 29.86 in 10.0 mi WNW 13.8 mph - N/A   Partly Cloudy
8:51 PM 72.0 °F -13.0 °F 4% 29.88 in 10.0 mi WNW 10.4 mph - N/A   Clear
9:51 PM 66.9 °F -2.0 °F 6% 29.90 in 10.0 mi SW 6.9 mph - N/A   Clear
10:51 PM 64.0 °F 1.9 °F 8% 29.92 in 10.0 mi SW 8.1 mph - N/A   Clear
11:51 PM 64.0 °F 1.0 °F 8% 29.92 in 10.0 mi WSW 6.9 mph - N/A   Clear